Find Starlink 2015

NORAD ID: 47638 Int'l Des: 2021-012 Owner: SPXS Country: US Constellation: starlink operational
LEOCIRCULAR

当前视图

正在加载3D地球...

About Starlink 2015

Starlink 2015 (NORAD 47638) is a starlink constellation satellite (v1.0) launched Feb 16, 2021 by SPXS of US. It operates in LEO, CIRCULAR orbit with a mass of 260.00 kg.

关于 Starlink 2015

正在加载描述...

即将过境

Passes for default location (London). Set your location on the main map for personalized predictions.

高度历史

Loading altitude history...

两行轨道根数

1 47638U 21012U 26168.40628720 .00034140 00000-0 96406-3 0 9996
2 47638 53.1564 227.9067 0005739 352.9818 7.1104 15.36066715296647
Epoch: Jun 17, 2026 • Age: 28 hours

当前状态

高度 453.9 km
速度 7.64 km/s
星下点 10.86°N, 115.05°E
发射日期 Feb 16, 2021
运行时间 5.3 years
类型 internet

技术详情

分类 Payload
质量 260.00 kg
干质量 248.00 kg
总质量 260.00 kg
长度 0.20 m
直径 2.80 m
跨度 9.00 m
形状 Box + pan
制造商 SPXS
平台类型 Starlink
阶段状态 In Orbit
所有者/国家 SPXS/US

Most Searched